DW7067 Weather Reports


time (UTC)temp
C
wind
direction
speed
KPH
gust
KPH
rain 1hr
cm
rain 24hr
cm
rain mn
cm
humidity
%
barometer
mb
20260507184004 12 292 6.4 9.7 0.00 0.00 0.00 47 1010.2
20260507183004 12 252 8.0 22.5 0.00 0.00 0.00 47 1010.4
20260507182004 12 227 4.8 22.5 0.00 0.00 0.00 45 1010.2
20260507181004 12 264 8.0 19.3 0.00 0.00 0.00 50 1010.3
20260507180004 12 274 6.4 20.9 0.00 0.00 0.00 46 1010.5
20260507175004 12 265 6.4 22.5 0.00 0.00 0.00 48 1010.5
20260507174004 12 241 8.0 12.9 0.00 0.00 0.00 50 1010.6
20260507171004 12 253 8.0 17.7 0.00 0.00 0.00 48 1011.1
20260507165003 12 251 6.4 24.1 0.00 0.00 0.00 48 1011.1
20260507164004 12 161 4.8 16.1 0.00 0.00 0.00 52 1011.2
20260507163004 11 272 4.8 16.1 0.00 0.00 0.00 52 1011.5
20260507162004 11 236 6.4 11.3 0.00 0.00 0.00 52 1011.6
20260507161004 11 244 6.4 19.3 0.00 0.00 0.00 54 1011.8
20260507160004 11 258 4.8 16.1 0.00 0.00 0.00 55 1011.7
20260507155004 11 249 4.8 8.0 0.00 0.00 0.00 53 1011.7
20260507154004 11 261 6.4 14.5 0.00 0.00 0.00 52 1011.8
20260507153004 11 207 6.4 16.1 0.00 0.00 0.00 54 1011.9
20260507152004 11 245 8.0 19.3 0.00 0.00 0.00 56 1011.9
20260507151004 10 275 8.0 22.5 0.00 0.00 0.00 54 1012.1
20260507150005 10 220 6.4 14.5 0.00 0.00 0.00 56 1012.2
20260507145004 11 240 6.4 14.5 0.00 0.00 0.00 53 1012.2
20260507144004 11 251 6.4 16.1 0.00 0.00 0.00 55 1012.3
20260507142004 11 239 4.8 22.5 0.00 0.03 0.00 59 1012.5
20260507141003 10 267 4.8 14.5 0.00 0.03 0.00 63 1012.6
20260507140005 10 257 8.0 17.7 0.00 0.03 0.00 63 1012.6
20260507135004 10 255 6.4 17.7 0.00 0.03 0.00 63 1012.7
20260507134004 9 234 4.8 17.7 0.00 0.05 0.00 64 1012.8
20260507133004 8 220 3.2 9.7 0.00 0.13 0.00 70 1012.9
20260507132004 8 147 3.2 8.0 0.00 0.13 0.00 73 1012.9
20260507131004 7 144 4.8 9.7 0.00 0.13 0.00 77 1012.9
20260507130004 6 205 4.8 12.9 0.00 0.15 0.00 83 1013.0
20260507125005 5 240 3.2 9.7 0.00 0.15 0.00 91 1013.0
20260507124004 4 241 1.6 6.4 0.00 0.15 0.00 95 1013.1
20260507123003 3 241 0.0 1.6 0.00 0.15 0.00 97 1013.2
20260507122004 2 241 1.6 4.8 0.00 0.18 0.00 97 1013.3
20260507121004 2 241 1.6 4.8 0.00 0.20 0.00 97 1013.2
20260507120004 1 241 1.6 3.2 0.00 0.23 0.00 96 1013.3
20260507115004 0 0 0.0 3.2 0.00 0.28 0.00 96 1013.4
20260507114004 0 0 0.0 0.0 0.00 0.30 0.00 96 1013.3
20260507113004 0 0 0.0 0.0 0.00 0.38 0.00 95 1013.3
20260507112004 -1 0 0.0 0.0 0.00 0.51 0.00 95 1013.2
20260507111004 -1 0 0.0 0.0 0.00 0.58 0.00 95 1013.1
20260507110004 -1 0 0.0 0.0 0.00 0.61 0.00 95 1013.0
20260507105004 -1 0 0.0 0.0 0.00 0.64 0.00 94 1013.0
20260507103004 -1 0 0.0 0.0 0.00 0.69 0.00 94 1012.7
20260507102006 -1 0 0.0 0.0 0.00 0.71 0.00 94 1012.7
20260507101003 -1 0 0.0 0.0 0.00 0.74 0.00 94 1012.7
20260507100004 -1 0 0.0 0.0 0.00 0.79 0.00 94 1012.7
20260507095004 -1 0 0.0 0.0 0.00 0.84 0.00 94 1012.6
20260507094004 -1 0 0.0 0.0 0.00 0.89 0.00 94 1012.7
20260507093004 0 0 0.0 0.0 0.00 0.94 0.00 94 1012.8
20260507092004 0 0 0.0 0.0 0.00 0.97 0.00 94 1012.9
20260507091004 0 0 0.0 0.0 0.00 1.02 0.00 94 1012.8
20260507090004 0 0 0.0 0.0 0.00 1.04 0.00 94 1012.8
20260507085004 0 0 0.0 0.0 0.00 1.09 0.00 94 1012.8
20260507084004 0 0 0.0 0.0 0.00 1.14 0.00 94 1012.9
20260507083004 0 0 0.0 0.0 0.00 1.19 0.00 94 1013.0
20260507082004 0 0 0.0 0.0 0.00 1.24 0.00 94 1013.1
20260507081004 0 0 0.0 0.0 0.00 1.30 0.00 94 1013.2
20260507080004 0 0 0.0 0.0 0.00 1.35 0.00 93 1013.1
20260507073004 1 0 0.0 0.0 0.00 1.45 0.00 93 1012.8
20260507072004 1 0 0.0 0.0 0.00 1.50 0.00 93 1012.8
20260507070008 2 0 0.0 0.0 0.00 1.55 0.00 93 1012.9
20260507065004 2 0 0.0 0.0 0.00 1.57 0.00 92 1012.9
20260507064004 2 0 0.0 1.6 0.00 1.60 0.00 92 1013.0
20260507062004 3 0 0.0 0.0 0.00 1.65 0.00 91 1012.9
20260507061004 3 0 0.0 0.0 0.00 1.68 0.00 92 1013.0
20260507060004 4 0 0.0 1.6 0.00 1.73 0.00 92 1013.2
20260507055004 4 0 0.0 0.0 0.00 1.73 0.00 92 1013.2
20260507053005 4 0 0.0 0.0 0.00 1.73 0.00 92 1013.3
20260507052004 4 0 0.0 0.0 0.00 1.73 0.00 92 1013.3
20260507051004 4 0 0.0 0.0 0.00 1.73 0.00 93 1013.4
20260507050005 4 0 0.0 0.0 0.00 1.73 0.00 92 1013.4
20260507045004 4 0 0.0 3.2 0.00 1.73 0.00 92 1013.6
20260507043004 4 0 0.0 0.0 0.00 1.73 0.00 92 1013.3
20260507042004 4 0 0.0 0.0 0.00 1.73 0.00 92 1013.2
20260507041004 5 0 0.0 1.6 0.00 1.73 0.00 91 1013.2
20260507040006 4 0 0.0 0.0 0.00 1.73 0.00 90 1013.3
20260507035004 5 0 0.0 0.0 0.00 1.73 1.73 90 1013.4
20260507034004 5 0 0.0 0.0 0.00 1.73 1.73 90 1013.4
20260507031004 5 0 0.0 0.0 0.00 1.73 1.73 88 1013.0
20260507030004 5 0 0.0 0.0 0.00 1.73 1.73 88 1012.9
20260507025004 5 0 0.0 1.6 0.00 1.73 1.73 87 1012.7
20260507023004 5 0 0.0 0.0 0.00 1.73 1.73 85 1012.6
20260507022004 6 0 0.0 0.0 0.00 1.73 1.73 83 1012.7
20260507021004 6 0 0.0 0.0 0.00 1.73 1.73 82 1012.7
20260507020004 6 0 0.0 0.0 0.00 1.73 1.73 82 1012.8
20260507015004 6 0 0.0 0.0 0.00 1.73 1.73 80 1012.9
20260507014004 6 241 0.0 4.8 0.00 1.73 1.73 79 1012.8
20260507013004 6 241 1.6 6.4 0.00 1.73 1.73 79 1012.9
20260507012004 7 0 0.0 6.4 0.00 1.73 1.73 81 1013.0
20260507011004 7 0 0.0 1.6 0.00 1.73 1.73 81 1013.1
20260507010004 7 0 0.0 0.0 0.00 1.73 1.73 80 1013.2
20260507005004 7 241 1.6 4.8 0.00 1.73 1.73 78 1013.0
20260507004004 7 241 1.6 4.8 0.00 1.73 1.73 75 1013.1
20260507003004 7 241 1.6 4.8 0.00 1.73 1.73 75 1012.9
20260507002004 7 241 1.6 6.4 0.00 1.73 1.73 72 1012.5
20260507001004 8 244 1.6 8.0 0.00 1.73 1.73 72 1012.6
20260507000004 8 250 1.6 6.4 0.00 1.73 1.73 71 1012.1
20260506235004 8 250 3.2 9.7 0.00 1.75 1.73 72 1012.1
20260506233004 8 252 4.8 12.9 0.00 1.91 1.73 71 1011.7
20260506232004 8 255 3.2 16.1 0.00 1.98 1.73 71 1011.6
20260506225004 9 262 3.2 8.0 0.00 1.98 1.73 77 1011.2
20260506223004 9 235 3.2 14.5 0.00 1.98 1.73 81 1011.0
20260506222004 9 245 1.6 9.7 0.00 1.98 1.73 84 1011.0
20260506220004 9 295 1.6 6.4 0.00 1.98 1.73 84 1010.9
20260506215006 9 296 1.6 6.4 0.00 1.98 1.73 84 1010.7
20260506214004 9 295 1.6 6.4 0.00 1.98 1.73 83 1010.7
20260506213004 9 295 1.6 4.8 0.00 1.98 1.73 84 1010.5
20260506212004 9 296 1.6 6.4 0.00 1.98 1.73 84 1010.2
20260506211004 9 296 3.2 4.8 0.00 1.98 1.73 84 1010.3
20260506210004 9 282 3.2 14.5 0.00 1.98 1.73 84 1010.5
20260506205004 9 273 1.6 12.9 0.00 1.98 1.73 85 1010.6
20260506204004 9 275 3.2 8.0 0.00 1.98 1.73 85 1010.3
20260506203004 9 276 3.2 11.3 0.00 1.98 1.73 85 1010.3
20260506202004 9 284 4.8 12.9 0.00 1.98 1.73 86 1010.2
20260506200005 10 249 6.4 16.1 0.00 1.98 1.73 87 1010.3
20260506195005 10 267 3.2 16.1 0.00 1.98 1.73 87 1010.0
20260506194004 10 255 3.2 9.7 0.00 1.98 1.73 87 1009.8
20260506192004 10 251 4.8 14.5 0.00 1.98 1.73 88 1010.0
20260506191004 10 239 4.8 11.3 0.00 1.98 1.73 89 1009.7